Miscellaneous Local Product
Issued by NWS Hastings, NE

Home | Current Version | Previous Version | Text Only | Print | Product List | Glossary Off
Versions: 1 2 3 4 5 6 7 8 9 10 11 12 13 14 15 16 17 18 19 20 21 22 23 24 25 26 27 28 29 30 31 32 33 34 35 36 37 38 39 40 41 42 43 44 45 46 47 48 49 50

000
AXUS43 KGID 291502
MISGRI

GID CWA HOURLY WEATHER ROUNDUP
NATIONAL WEATHER SERVICE HASTINGS NE
1000 AM CDT WED JUL 29 2015

NOTE: "FAIR" INDICATES FEW OR NO CLOUDS BELOW 12,000 FEET WITH NO
SIGNIFICANT WEATHER AND/OR OBSTRUCTIONS TO VISIBILITY.

...SOUTH CENTRAL NEBRASKA...

CITY           SKY/WX    TMP DP  RH WIND       PRES   REMARKS
GRAND ISLAND   MOSUNNY   75  58  55 W5        30.27S
HASTINGS       MOSUNNY   73  56  54 CALM      30.27S
KEARNEY        MOSUNNY   72  52  49 S5        30.28F
ORD            PTSUNNY   69  58  67 CALM      30.27R
YORK           SUNNY     73  63  68 CALM      30.26R
AURORA         MOSUNNY   73  59  61 W3        30.27R
LEXINGTON      MOSUNNY   67  57  69 W3        30.31S
HOLDREGE       MOSUNNY   71  55  56 NE3       30.28F
HEBRON         MOSUNNY   74  60  61 N5        30.23F

...NEBRASKA PANHANDLE...

CITY           SKY/WX    TMP DP  RH WIND       PRES   REMARKS
CHADRON        SUNNY     67  46  47 W6        30.31S
ALLIANCE       SUNNY     66  47  50 S7        30.34R
SCOTTSBLUFF    SUNNY     63  47  55 E8        30.34S
SIDNEY         SUNNY     69  43  38 SE10      30.34S

...WESTERN AND NORTH CENTRAL NEBRASKA...

CITY           SKY/WX    TMP DP  RH WIND       PRES   REMARKS
VALENTINE      SUNNY     72  47  40 SW12      30.27R
AINSWORTH      SUNNY     74  46  36 SW13      30.28R
ONEILL         SUNNY     75  55  49 SW8       30.25S
BROKEN BOW     PTSUNNY   69  55  60 CALM      30.30R
IMPERIAL       MOSUNNY   71  51  49 SE9       30.31S
NORTH PLATTE   PTSUNNY   67  53  61 CALM      30.32R
MCCOOK         SUNNY     71  56  58 NE8       30.28F

...EASTERN NEBRASKA...

CITY           SKY/WX    TMP DP  RH WIND       PRES   REMARKS
NORFOLK        SUNNY     74  58  57 W7        30.22R
SO SIOUX CITY  SUNNY     73  61  65 SW8       30.16R
TEKAMAH        SUNNY     75  64  68 SW3       30.19R
COLUMBUS       SUNNY     73  57  56 CALM      30.23R
ALBION         MOSUNNY   71  59  66 SW3       30.25S
OMAHA EPPLEY   MOSUNNY   75  66  73 NW5       30.18R
OFFUTT AFB     MOSUNNY   75  64  68 NW6       30.17S
MILLARD        MOSUNNY   74  62  66 NW6       30.19R
LINCOLN        SUNNY     76  63  64 NW3       30.22R
NEBRASKA CITY  MOSUNNY   74  63  69 N6        30.18R
BEATRICE       MOSUNNY   75  63  66 N6        30.21R
FALLS CITY     CLOUDY    74  70  87 NW6       30.15R

...NORTHERN KANSAS...

CITY           SKY/WX    TMP DP  RH WIND       PRES   REMARKS
GOODLAND       PTSUNNY   71  50  47 E15G23    30.28S
HILL CITY      MOSUNNY   73  59  61 E17G23    30.22F
NORTON         SUNNY     73  57  56 NE8       30.26F
PHILLIPSBURG   MOSUNNY   75  61  60 NE7       30.25F HAZE
SMITH CENTER   SUNNY     70  61  73 N6        30.25F
HAYS           CLOUDY    70  55  60 NE18      30.17F
RUSSELL        LGT RAIN  68  61  78 NE14      30.15F
CONCORDIA      PTSUNNY   71  64  78 W7        30.23R
SALINA         CLOUDY    71  66  84 NW14      30.19F
TOPEKA         CLOUDY    74  71  91 NW7       30.14R



USA.gov is the U.S. government's official web portal to all federal, state and local government web resources and services.